Tracking 19846 objects as of 19-Sep-2019
HD Live streaming from Space Station
objects crossing your sky now

ATLAS D R/B

Track ATLAS D R/B now!
10-day predictions


NORAD ID: 2328
Int'l Code: 1966-063C
Perigee: 1,000.2 km
Apogee: 1,014.7 km
Inclination: 144.2 °
Period: 105.1 minutes
Semi major axis: 7378 km
RCS: 1.0156 m2 (large)
Launch date: July 14, 1966
Source: United States (US)
Launch site: AIR FORCE WESTERN TEST RANGE (AFWTR)

Note: This is a ROCKET BODY
aabbcc
Your satellite tracking list
Your tracking list is empty




NASA's NSSDC Master Catalog

Two Line Element Set (TLE):
1  2328U 66063C   19261.84672059  .00000275  00000-0  32129-4 0  9991
2  2328 144.2313 298.0825 0009820 196.2940 281.4307 13.69794477662847
Source of the keplerian elements: AFSPC